Weather History for Kansas City, MO

Change the Weather History Date:

Monday, January 7, 2013

  Actual Average Record
Temperature  
Mean Temperature 40 °F -  
Max Temperature 50 °F 37 °F 66 °F (2008)
Min Temperature 30 °F 21 °F 1 °F (2014)
Degree Days  
Heating Degree Days 25    
Moisture  
Dew Point 22 °F    
Average Humidity 51    
Maximum Humidity 64    
Minimum Humidity 32    
Precipitation  
Precipitation 0.00 in - - ()
Sea Level Pressure  
Sea Level Pressure 30.16 in    
Wind  
Wind Speed 8 mph (SSW)    
Max Wind Speed 17 mph    
Max Gust Speed 25 mph    
Visibility 10 miles    
Events      
Averages and records for this station are not official NWS values.
T = Trace of Precipitation, MM = Missing Value Source: NWS Daily Summary

Daily Weather History Graph

Daily Weather History Graph

Search for Another Location

Airport:

Trip Planner

Search our weather history database for the weather conditions in past years. The results will help you decide how hot, cold, wet, or windy it might be!

Date:

Astronomy

Jan. 07, 2013 Rise Set
Actual Time 7:37 AM CST 5:12 PM CST
Civil Twilight 7:08 AM CST 5:41 PM CST
Nautical Twilight 6:34 AM CST 6:15 PM CST
Astronomical Twilight 6:02 AM CST 6:47 PM CST
Moon 3:03 AM CST (1/7) 1:23 PM CST (1/7)
Length of Visible Light 10h 33m
Length of Day
9h 34m
Waning Crescent, 22% of the Moon is Illuminated
Jan 7
Waning Crescent
Jan 11
New
Jan 18
First Quarter
Jan 26
Full
Feb 3
Last Quarter

Hourly Weather History & Observations

Time (CST) Temp. Windchill Dew Point Humidity Pressure Visibility Wind Dir Wind Speed Gust Speed Precip Events Conditions
12:54 AM 32.0 °F 27.5 °F 19.9 °F 61% 30.30 in 10.0 mi SSW 4.6 mph - N/A   Clear
1:54 AM 30.9 °F 24.3 °F 19.9 °F 64% 30.28 in 10.0 mi SSW 6.9 mph - N/A   Clear
2:54 AM 30.9 °F 25.2 °F 19.9 °F 64% 30.28 in 10.0 mi SSW 5.8 mph - N/A   Clear
3:54 AM 30.9 °F 25.2 °F 19.0 °F 61% 30.26 in 10.0 mi South 5.8 mph - N/A   Clear
4:54 AM 30.0 °F 22.4 °F 19.0 °F 64% 30.25 in 10.0 mi South 8.1 mph - N/A   Clear
5:54 AM 30.0 °F - 19.0 °F 64% 30.24 in 10.0 mi Calm Calm - N/A   Clear
6:54 AM 30.9 °F 23.5 °F 19.9 °F 64% 30.25 in 10.0 mi South 8.1 mph - N/A   Clear
7:54 AM 32.0 °F 24.8 °F 19.9 °F 61% 30.24 in 10.0 mi SSW 8.1 mph - N/A   Clear
8:54 AM 36.0 °F 30.3 °F 21.0 °F 55% 30.24 in 10.0 mi SSW 6.9 mph - N/A   Clear
9:54 AM 41.0 °F 33.5 °F 21.0 °F 45% 30.23 in 10.0 mi SSW 13.8 mph - N/A   Clear
10:54 AM 45.0 °F 38.5 °F 21.0 °F 39% 30.22 in 10.0 mi SSW 13.8 mph - N/A   Clear
11:54 AM 48.0 °F - 23.0 °F 37% 30.17 in 10.0 mi SSW 12.7 mph - N/A   Clear
12:54 PM 50.0 °F - 21.2 °F 32% 30.12 in 10.0 mi SSW 17.3 mph 25.3 mph N/A   Clear
1:54 PM 48.9 °F - 21.9 °F 35% 30.12 in 10.0 mi SW 16.1 mph 21.9 mph N/A   Clear
2:54 PM 50.0 °F - 23.0 °F 35% 30.10 in 10.0 mi SSW 11.5 mph 20.7 mph N/A   Clear
3:54 PM 48.0 °F - 24.1 °F 39% 30.10 in 10.0 mi SSW 5.8 mph - N/A   Clear
4:54 PM 46.4 °F 41.9 °F 24.8 °F 43% 30.06 in 10.0 mi South 9.2 mph - N/A   Clear
5:54 PM 45.0 °F 39.3 °F 24.1 °F 44% 30.08 in 10.0 mi SSW 11.5 mph - N/A   Clear
6:54 PM 43.0 °F 38.8 °F 24.1 °F 47% 30.07 in 10.0 mi SSW 6.9 mph - N/A   Clear
7:54 PM 43.0 °F 37.2 °F 24.1 °F 47% 30.07 in 10.0 mi South 10.4 mph - N/A   Clear
8:54 PM 42.1 °F 35.7 °F 25.0 °F 51% 30.07 in 10.0 mi SSW 11.5 mph - N/A   Clear
9:54 PM 42.1 °F 36.6 °F 25.0 °F 51% 30.07 in 10.0 mi SSW 9.2 mph - N/A   Clear
10:54 PM 42.1 °F 35.7 °F 26.1 °F 53% 30.06 in 10.0 mi SSW 11.5 mph - N/A   Clear
11:54 PM 41.0 °F 33.9 °F 27.0 °F 57% 30.05 in 10.0 mi SSW 12.7 mph - N/A   Clear